Location: Torrington
(42.0650°N, 104.1810°W)
Time: 05:59:04
(UTC-06:00)

Amateur Radio Satellites - All Passes

Search period start: 24 October 2014 05:29
Search period end: 25 October 2014 05:29
Location: Torrington, 42.0650°N, 104.1810°W

Satellite Date Start Highest point End Downlink Frequencies (MHz)
Time Altitude Azimuth
Sapphire 24 Oct 05:37:47 05:42:34 31° 311° (NW) 05:47:23 437.095 MHz 1200 baud AX-25 AFSK
Uosat F 24 Oct 05:38:39 05:43:44 85° 285° (WNW) 05:48:46 435.120 FM
Hamsat 24 Oct 05:45:53 05:48:27 16° 92° (E) 05:51:01 145.90 MHz
JAS-2 24 Oct 05:51:19 05:58:41 44° 96° (E) 06:06:01 435.800 - 435.900 CW/SSB, 435.910 FM
PCSat 24 Oct 06:01:30 06:05:34 21° 316° (NW) 06:09:38 145.825 MHz
AO-7 24 Oct 06:12:46 06:20:55 61° 294° (WNW) 06:29:03 29.400 - 29.500 MHz
OPAL 24 Oct 06:24:52 06:28:39 20° 265° (W) 06:32:25 ?
STRAND 1 24 Oct 06:27:45 06:32:40 48° 70° (ENE) 06:37:37 ?
Saudisat 1A 24 Oct 06:41:18 06:41:50 10° 107° (ESE) 06:42:23 436.775 MHz
Uosat F 24 Oct 07:20:05 07:21:42 12° 303° (WNW) 07:23:20 435.120 FM
Hamsat 24 Oct 07:20:37 07:24:36 44° 288° (WNW) 07:28:36 145.90 MHz
RS-15 24 Oct 07:22:57 07:34:10 77° 55° (NE) 07:45:50 29.354 - 29.394 USB, Beacon 29.352 USB
SO-67 24 Oct 07:30:28 07:33:28 27° 96° (E) 07:36:26 435.3500 MHz FM
JAS-2 24 Oct 07:36:24 07:43:35 44° 294° (WNW) 07:50:51 435.800 - 435.900 CW/SSB, 435.910 FM
AO-7 24 Oct 08:07:57 08:12:02 15° 315° (NW) 08:16:07 29.400 - 29.500 MHz
STRAND 1 24 Oct 08:08:19 08:12:06 21° 267° (W) 08:15:55 ?
Saudisat 1A 24 Oct 08:16:20 08:20:43 83° 304° (WNW) 08:25:09 436.775 MHz
SO-67 24 Oct 09:03:57 09:06:14 17° 292° (WNW) 09:08:31 435.3500 MHz FM
MaSat-1 24 Oct 09:13:50 09:16:17 32° 59° (ENE) 09:18:32 437.345 MHz
PANSAT 24 Oct 09:26:55 09:27:45 11° 178° (S) 09:28:34 not established
Oscar 11 24 Oct 09:34:44 09:36:49 13° 91° (E) 09:38:54 145.825 FM, Beacon 2401.500 USB
HO-68 24 Oct 09:35:04 09:42:00 48° 100° (E) 09:48:52 435.675 MHz FM
RS-15 24 Oct 09:36:21 09:45:31 31° 256° (WSW) 09:55:02 29.354 - 29.394 USB, Beacon 29.352 USB
Saudisat 1A 24 Oct 09:58:44 10:00:59 14° 323° (NW) 10:03:15 436.775 MHz
ZACube-1 24 Oct 10:21:38 10:24:34 18° 92° (E) 10:27:27 437.345 MHz
UKube-1 24 Oct 10:26:59 10:31:16 53° 101° (E) 10:35:32 145.840 MHz, 145.915 MHz
KITSAT 1 24 Oct 10:43:17 10:46:27 13° 98° (E) 10:49:38 435.175 FM
FUNcube-1 24 Oct 11:05:35 11:09:47 55° 100° (E) 11:13:52 145.950 - 145.970 MHz USB
Oscar 11 24 Oct 11:09:07 11:13:20 55° 287° (WNW) 11:17:32 145.825 FM, Beacon 2401.500 USB
Oscar 10/S400 24 Oct 11:20:28 11:36:11 18° 151° (SSE) 11:47:43 145.825 - 145.975 CW/USB, Beacon 145.810 USB
PCSat 24 Oct 11:22:15 11:24:37 13° 36° (NE) 11:26:58 145.825 MHz
HO-68 24 Oct 11:23:08 11:29:28 35° 298° (WNW) 11:35:48 435.675 MHz FM
Oscar 16 24 Oct 11:56:23 11:57:13 10° 57° (ENE) 11:58:02 437.025 USB, Beacon 2401.1428
ZACube-1 24 Oct 11:57:10 12:01:08 38° 289° (WNW) 12:05:01 437.345 MHz
UKube-1 24 Oct 12:04:26 12:07:02 16° 297° (WNW) 12:09:37 145.840 MHz, 145.915 MHz
SO-50 24 Oct 12:07:55 12:10:20 14° 108° (ESE) 12:12:47 436.795 FM
JAS-1B 24 Oct 12:15:37 12:18:52 16° 58° (ENE) 12:22:04 435.800 - 435.900 CW/SSB
KITSAT 1 24 Oct 12:32:23 12:40:23 71° 117° (ESE) 12:48:26 435.175 FM
Sapphire 24 Oct 12:41:20 12:46:25 38° 52° (NE) 12:51:27 437.095 MHz 1200 baud AX-25 AFSK
FUNcube-1 24 Oct 12:43:29 12:45:40 14° 297° (WNW) 12:47:50 145.950 - 145.970 MHz USB
ISS 24 Oct 12:43:34 12:46:34 31° 137° (SE) 12:49:34 145.800 FM
Oscar 19 24 Oct 12:45:47 12:50:10 29° 66° (ENE) 12:54:32 437.125 CW, 437.150 USB
AO-27 24 Oct 13:03:23 13:06:57 19° 62° (ENE) 13:10:31 436.795 MHz FM
PCSat 24 Oct 13:03:48 13:09:11 61° 57° (ENE) 13:14:32 145.825 MHz
AO-Echo 24 Oct 13:29:42 13:34:10 37° 68° (ENE) 13:38:47 ?
Oscar 16 24 Oct 13:30:31 13:35:40 76° 74° (ENE) 13:40:50 437.025 USB, Beacon 2401.1428
AO-7 24 Oct 13:35:44 13:36:58 10° 39° (NE) 13:38:12 29.400 - 29.500 MHz
SO-50 24 Oct 13:45:50 13:50:18 64° 306° (NW) 13:54:55 436.795 FM
Uribyol 2 24 Oct 13:49:29 13:54:30 49° 70° (ENE) 13:59:33 436.500 FM
ITAMSAT 1 24 Oct 13:55:23 14:00:25 53° 71° (ENE) 14:05:30 435.822 SSB
JAS-1B 24 Oct 14:02:57 14:08:57 75° 257° (WSW) 14:14:38 435.800 - 435.900 CW/SSB
Gurwin Techsat 1B 24 Oct 14:13:03 14:17:59 40° 69° (ENE) 14:22:56 435.225 FM
ISS 24 Oct 14:20:06 14:23:13 36° 334° (NNW) 14:26:21 145.800 FM
TMSAT-1 24 Oct 14:24:37 14:29:29 38° 68° (ENE) 14:34:22 436.925 FM
Oscar 19 24 Oct 14:24:40 14:29:22 35° 263° (W) 14:34:06 437.125 CW, 437.150 USB
Sapphire 24 Oct 14:24:57 14:29:44 32° 250° (WSW) 14:34:30 437.095 MHz 1200 baud AX-25 AFSK
KITSAT 1 24 Oct 14:29:23 14:36:27 32° 318° (NW) 14:43:33 435.175 FM
AO-27 24 Oct 14:40:50 14:45:58 60° 259° (W) 14:51:09 436.795 MHz FM
PCSat 24 Oct 14:48:20 14:52:06 19° 255° (WSW) 14:55:50 145.825 MHz
Saudisat 1A 24 Oct 15:04:25 15:06:50 14° 37° (NE) 15:09:14 436.775 MHz
AO-Echo 24 Oct 15:08:59 15:13:01 26° 266° (W) 15:17:11 ?
UOSAT-12 24 Oct 15:11:19 15:15:58 88° 123° (ESE) 15:20:43 437.025 FM, 437.400 FM
Oscar 16 24 Oct 15:13:15 15:15:34 13° 271° (W) 15:17:54 437.025 USB, Beacon 2401.1428
Uosat F 24 Oct 15:15:43 15:19:02 18° 62° (ENE) 15:22:23 435.120 FM
AO-7 24 Oct 15:19:56 15:27:37 45° 62° (ENE) 15:35:19 29.400 - 29.500 MHz
SO-50 24 Oct 15:29:55 15:31:49 12° 327° (NNW) 15:33:44 436.795 FM
Uribyol 2 24 Oct 15:30:22 15:34:14 21° 267° (W) 15:38:08 436.500 FM
ITAMSAT 1 24 Oct 15:36:30 15:40:13 20° 268° (W) 15:43:57 435.822 SSB
Gurwin Techsat 1B 24 Oct 15:53:40 15:58:03 26° 266° (W) 16:02:29 435.225 FM
ISS 24 Oct 15:58:23 16:00:37 16° 354° (N) 16:02:50 145.800 FM
TMSAT-1 24 Oct 16:04:59 16:09:28 28° 265° (W) 16:13:59 436.925 FM
JAS-2 24 Oct 16:06:14 16:10:15 18° 55° (NE) 16:14:34 435.800 - 435.900 CW/SSB, 435.910 FM
KITSAT 1 24 Oct 16:31:23 16:34:57 13° 347° (NNW) 16:38:31 435.175 FM
Hamsat 24 Oct 16:40:41 16:42:36 13° 63° (ENE) 16:44:31 145.90 MHz
Saudisat 1A 24 Oct 16:42:37 16:47:04 87° 58° (ENE) 16:51:29 436.775 MHz
Uosat F 24 Oct 16:52:24 16:57:21 59° 259° (WSW) 17:02:20 435.120 FM
UOSAT-12 24 Oct 16:53:51 16:56:47 16° 322° (NW) 16:59:45 437.025 FM, 437.400 FM
OPAL 24 Oct 16:56:43 16:58:08 11° 91° (E) 16:59:33 ?
AO-7 24 Oct 17:12:38 17:20:22 43° 260° (W) 17:28:11 29.400 - 29.500 MHz
ISS 24 Oct 17:35:39 17:38:13 20° 14° (NNE) 17:40:47 145.800 FM
JAS-2 24 Oct 17:48:24 17:54:18 82° 257° (WSW) 18:01:05 435.800 - 435.900 CW/SSB, 435.910 FM
SO-67 24 Oct 18:05:36 18:06:30 11° 65° (ENE) 18:07:23 435.3500 MHz FM
Hamsat 24 Oct 18:13:54 18:18:04 59° 260° (W) 18:22:13 145.90 MHz
KITSAT 1 24 Oct 18:30:28 18:34:38 15° 18° (NNE) 18:38:47 435.175 FM
OPAL 24 Oct 18:32:38 18:37:38 82° 287° (WNW) 18:42:34 ?
STRAND 1 24 Oct 18:39:14 18:42:19 16° 91° (E) 18:45:21 ?
AO-40 24 Oct 19:06:02 22:27:18 35° 194° (SSW) 03:41:11 Beacon 2401.320
ISS 24 Oct 19:12:01 19:15:21 74° 33° (NNE) 19:18:41 145.800 FM
SO-67 24 Oct 19:35:45 19:39:03 45° 261° (W) 19:42:23 435.3500 MHz FM
JAS-2 24 Oct 19:38:39 19:40:40 12° 278° (W) 19:42:44 435.800 - 435.900 CW/SSB, 435.910 FM
HO-68 24 Oct 20:04:12 20:10:40 39° 63° (ENE) 20:17:10 435.675 MHz FM
OPAL 24 Oct 20:14:19 20:15:41 11° 305° (NW) 20:17:03 ?
STRAND 1 24 Oct 20:16:49 20:21:56 64° 287° (WNW) 20:27:00 ?
KITSAT 1 24 Oct 20:25:17 20:32:45 39° 46° (NE) 20:40:10 435.175 FM
Oscar 11 24 Oct 20:31:07 20:32:52 12° 62° (ENE) 20:34:37 145.825 FM, Beacon 2401.500 USB
SO-50 24 Oct 20:37:07 20:40:46 21° 41° (NE) 20:44:25 436.795 FM
ISS 24 Oct 20:49:53 20:51:39 14° 229° (SW) 20:53:24 145.800 FM
ZACube-1 24 Oct 21:18:38 21:21:44 18° 65° (ENE) 21:24:49 437.345 MHz
UKube-1 24 Oct 21:22:41 21:26:52 48° 72° (ENE) 21:31:05 145.840 MHz, 145.915 MHz
RS-15 24 Oct 21:47:21 21:57:33 46° 110° (ESE) 22:07:40 29.354 - 29.394 USB, Beacon 29.352 USB
HO-68 24 Oct 21:51:31 21:58:15 43° 261° (W) 22:05:03 435.675 MHz FM
UOSAT-12 24 Oct 22:01:44 22:04:31 15° 37° (NE) 22:07:17 437.025 FM, 437.400 FM
FUNcube-1 24 Oct 22:01:50 22:06:14 48° 72° (ENE) 22:10:36 145.950 - 145.970 MHz USB
Oscar 11 24 Oct 22:04:11 22:08:29 68° 259° (WSW) 22:12:49 145.825 FM, Beacon 2401.500 USB
SO-50 24 Oct 22:16:57 22:21:46 66° 240° (WSW) 22:26:36 436.795 FM
KITSAT 1 24 Oct 22:20:37 22:28:27 56° 247° (WSW) 22:36:14 435.175 FM
MaSat-1 24 Oct 22:52:15 22:54:12 13° 105° (ESE) 22:56:04 437.345 MHz
ZACube-1 24 Oct 22:53:20 22:57:46 48° 261° (W) 23:02:10 437.345 MHz
UKube-1 24 Oct 23:00:43 23:03:19 16° 268° (W) 23:05:56 145.840 MHz, 145.915 MHz
FUNcube-1 24 Oct 23:39:52 23:42:50 17° 268° (W) 23:45:48 145.950 - 145.970 MHz USB
UOSAT-12 24 Oct 23:40:39 23:45:25 84° 57° (ENE) 23:50:04 437.025 FM, 437.400 FM
RS-15 24 Oct 23:59:00 00:09:41 55° 313° (NW) 00:20:25 29.354 - 29.394 USB, Beacon 29.352 USB
Oscar 10/S400 25 Oct 00:05:19 01:08:35 30° 230° (SW) 05:00:03 145.825 - 145.975 CW/USB, Beacon 145.810 USB
MaSat-1 25 Oct 00:25:29 00:29:31 52° 298° (WNW) 00:33:11 437.345 MHz
UOSAT-12 25 Oct 01:23:26 01:24:49 11° 253° (WSW) 01:26:12 437.025 FM, 437.400 FM
AO-Echo 25 Oct 01:38:12 01:40:21 12° 88° (E) 01:42:29 ?
Oscar 16 25 Oct 01:42:25 01:46:39 25° 94° (E) 01:50:50 437.025 USB, Beacon 2401.1428
JAS-1B 25 Oct 01:44:45 01:50:39 30° 97° (E) 01:57:26 435.800 - 435.900 CW/SSB
Uribyol 2 25 Oct 02:03:01 02:06:19 17° 91° (E) 02:09:36 436.500 FM
ITAMSAT 1 25 Oct 02:08:54 02:12:26 18° 92° (E) 02:15:56 435.822 SSB
RS-15 25 Oct 02:16:53 02:25:15 24° 344° (NNW) 02:33:45 29.354 - 29.394 USB, Beacon 29.352 USB
Gurwin Techsat 1B 25 Oct 02:30:04 02:33:07 15° 90° (E) 02:36:10 435.225 FM
Oscar 19 25 Oct 02:35:13 02:40:21 79° 103° (ESE) 02:45:28 437.125 CW, 437.150 USB
TMSAT-1 25 Oct 02:41:24 02:44:12 14° 89° (E) 02:46:59 436.925 FM
AO-27 25 Oct 02:53:28 02:58:32 48° 100° (E) 03:03:33 436.795 MHz FM
AO-Echo 25 Oct 03:14:22 03:19:43 84° 285° (WNW) 03:25:02 ?
Oscar 16 25 Oct 03:21:21 03:26:06 39° 291° (WNW) 03:30:49 437.025 USB, Beacon 2401.1428
Sapphire 25 Oct 03:24:03 03:28:42 30° 109° (ESE) 03:33:24 437.095 MHz 1200 baud AX-25 AFSK
AO-7 25 Oct 03:24:53 03:26:47 11° 86° (E) 03:28:41 29.400 - 29.500 MHz
JAS-1B 25 Oct 03:35:01 03:41:23 52° 290° (WNW) 03:48:57 435.800 - 435.900 CW/SSB
Uribyol 2 25 Oct 03:41:03 03:46:12 61° 288° (WNW) 03:51:17 436.500 FM
PCSat 25 Oct 03:45:52 03:51:05 51° 114° (ESE) 03:56:20 145.825 MHz
ITAMSAT 1 25 Oct 03:47:09 03:52:17 57° 288° (WNW) 03:57:22 435.822 SSB
Gurwin Techsat 1B 25 Oct 04:08:17 04:13:35 68° 287° (WNW) 04:18:50 435.225 FM
OPAL 25 Oct 04:10:27 04:14:33 25° 62° (ENE) 04:18:38 ?
Oscar 19 25 Oct 04:16:26 04:19:02 14° 301° (WNW) 04:21:38 437.125 CW, 437.150 USB
TMSAT-1 25 Oct 04:19:20 04:24:39 72° 286° (WNW) 04:29:55 436.925 FM
AO-27 25 Oct 04:33:41 04:37:43 23° 297° (WNW) 04:41:43 436.795 MHz FM
RS-15 25 Oct 04:34:01 04:42:47 26° 21° (NNE) 04:51:46 29.354 - 29.394 USB, Beacon 29.352 USB
AO-Echo 25 Oct 04:55:36 04:57:38 12° 302° (WNW) 04:59:41 ?
JAS-2 25 Oct 04:58:00 05:03:07 18° 87° (E) 05:08:11 435.800 - 435.900 CW/SSB, 435.910 FM
Uosat F 25 Oct 04:59:44 05:04:31 41° 99° (E) 05:09:15 435.120 FM
Sapphire 25 Oct 05:06:54 05:11:58 40° 307° (NW) 05:17:06 437.095 MHz 1200 baud AX-25 AFSK
